Terminal Aerodrome Forecast
Issued by NWS Sioux Falls, SD

Home | Current Version | Previous Version | Graphics & Text | Print | Product List | Glossary On
Versions: 1 2 3 4 5 6 7 8 9 10 11 12 13 14 15 16 17 18 19 20 21 22 23 24 25 26
000
FTUS43 KFSD 311720
TAFSUX
TAF
KSUX 311720Z 3118/0118 18013G19KT P6SM FEW200
     FM010000 15006KT P6SM SCT200
     FM010800 12004KT P6SM FEW150 BKN200
      TEMPO 0111/0114 4SM BR FEW003=

USA.gov is the U.S. government's official web portal to all federal, state and local government web resources and services.